User: anonymous   Login
Location: Unspecified
(0.0000°N, 0.0000°E)
Time: 07:19:26
(UTC+00:00)
Language:

OBJECT K - Orbit

View from above orbital plane
View from above orbital plane
View from above satellite
View from above satellite

Ground track
Ground track

The orbit is defined by the following mean orbital elements,

1 42834U          26106.44545285 +.00000000 +00000-0 +20039-3 0 00003
2 42834  97.4157 270.1098 0007248 274.8860  85.1542 15.08470190    09
Epoch (UTC): 16 April 2026 10:41:27
Eccentricity: 0.0007248
inclination: 97.4157°
perigee height: 536 km
apogee height: 546 km
right ascension of ascending node: 270.1098°
argument of perigee: 274.8860°
revolutions per day: 15.08470190
mean anomaly at epoch: 85.1542°

The dashed part of the orbit path shows where the satellite is in the earth's shadow,  

DLR